Regional Weather Roundup
Issued by NWS Cleveland, OH

Home | Current Version | Previous Version | Graphics & Text | Print | Product List | Glossary On
Versions: 1 2 3 4 5 6 7 8 9 10 11 12 13 14 15 16 17 18 19 20 21 22 23 24 25 26 27 28 29 30 31 32 33 34 35 36 37 38 39 40 41 42 43 44 45 46 47 48 49 50
554
ASUS41 KCLE 281002
RWRCLE
OHIO REGIONAL WEATHER ROUNDUP
NATIONAL WEATHER SERVICE CLEVELAND, OH
600 AM EDT THU JUL 28 2016

NOTE: "FAIR" INDICATES FEW OR NO CLOUDS BELOW 12,000 FEET WITH NO
SIGNIFICANT WEATHER AND/OR OBSTRUCTIONS TO VISIBILITY.

OHZ001>008-015>018-024>027-034-035-043-044-281100-
   NORTHWEST OHIO

CITY           SKY/WX    TMP DP  RH WIND       PRES   REMARKS
DEFIANCE       CLOUDY    70  64  81 CALM      29.90S
FINDLAY        CLOUDY    75  62  64 CALM      29.90R
TOLEDO EXPRESS CLOUDY    69  67  93 N5        29.91R
TOLEDO EXEC    CLOUDY    71  66  84 N3        29.91S
LIMA           CLOUDY    68  66  93 CALM      29.90S
$$

OHZ009>014-019>023-028>033-038-089-281100-
   NORTHEAST OHIO

CITY           SKY/WX    TMP DP  RH WIND       PRES   REMARKS
CLE-HOPKINS    MOCLDY    68  60  75 CALM      29.93R
CLE-LAKEFRONT  PTCLDY    75  59  57 SE8       29.89S
CUY CO. ARPT   NOT AVBL
LORAIN-ELYRIA  CLOUDY    65  60  84 S3        29.92R
ASHTABULA      PTCLDY    64  62  93 N3        29.94R
AKRON-CANTON   CLOUDY    69  60  73 NE5       29.93R
WOOSTER        PTCLDY    65  61  87 CALM      29.93S
MANSFIELD      CLOUDY    73  60  63 SE3       29.92F
YOUNGSTOWN     CLOUDY    65  62  90 E8        29.93S
$$

OHZ042-051>053-060>062-070>072-077>081-281100-
  SOUTHWEST OHIO

CITY           SKY/WX    TMP DP  RH WIND       PRES   REMARKS
CINC-COVINGTON TSTM      73  72  96 S5        29.92S FOG
CINC-LUNKEN    TSTM      71  71 100 VRB3      29.94R VSB 1/4
HAMILTON       CLOUDY    76  70  82 S5        29.93R THUNDER
DAYTON         CLOUDY    73  64  73 CALM      29.91S
WRIGHT-PAT AFB CLOUDY    73  68  86 W1        29.89F
DAYTON GENERAL CLOUDY    74  66  76 S8        29.90S
WILMINGTON     LGT RAIN  73  72  96 SW7       29.91F FOG
$$

OHZ036-037-039>041-045>050-054>059-063>069-073>076-082>088-281100-
  CENTRAL AND SOUTHEAST OHIO

CITY           SKY/WX    TMP DP  RH WIND       PRES   REMARKS
COLUMBUS       CLOUDY    76  67  73 SE3       29.88F
OSU AIRPORT    MOCLDY    75  65  70 E5        29.89F
BOLTON FIELD   CLOUDY    73  71  95 CALM      29.90S
RICKENBACK AFB LGT RAIN  74  73  96 S5        29.88F
NEWARK         CLOUDY    72  67  84 CALM      29.90S
MARION         CLOUDY    71  65  81 CALM      29.91S
LANCASTER      CLOUDY    75  73  93 CALM      29.90S
ZANESVILLE     CLOUDY    76  71  85 SE5       29.91S
NEW PHILLY     CLOUDY    71  63  75 CALM      29.92R
$$




USA.gov is the U.S. government's official web portal to all federal, state and local government web resources and services.